Regional Weather Roundup
Issued by NWS

Home | Current Version | Previous Version | Graphics & Text | Print | Product List | Glossary Off
Versions: 1 2 3 4 5 6 7 8 9 10 11 12 13 14 15 16 17 18 19 20 21 22 23 24 25 26 27 28 29 30 31 32 33 34 35 36 37 38 39 40 41 42 43 44 45 46 47 48 49 50

517
ASUS43 KLOT 301908
RWRIL

ILLINOIS REGIONAL WEATHER ROUNDUP
NATIONAL WEATHER SERVICE CHICAGO/ROMEOVILLE IL
200 PM CDT SAT JUL 30 2016

NOTE: "FAIR" INDICATES FEW OR NO CLOUDS BELOW 12,000 FEET WITH NO
SIGNIFICANT WEATHER AND/OR OBSTRUCTIONS TO VISIBILITY.

* THESE STATIONS ARE NOT UNDER NWS QUALITY CONTROL. THEY ALSO MAY NOT
  REPORT WEATHER SUCH AS PRECIPITATION OR FOG.

ILZ001-002-007-009-015-016-024-302000-
NORTHWEST ILLINOIS

CITY           SKY/WX    TMP DP  RH WIND       PRES   REMARKS
MOLINE         PTSUNNY   81  67  62 CALM      29.98F HX  83
STERLING*      PTSUNNY   79  68  69 NE9       29.99F HX  81
SAVANNA*       MOSUNNY   81  66  60 E9        29.99F HX  83
$$

ILZ003-004-008-010-011-017-018-302000-
NORTH CENTRAL ILLINOIS

CITY           SKY/WX    TMP DP  RH WIND       PRES   REMARKS
ROCKFORD       PTSUNNY   78  64  61 E9        30.01F HX  80
FREEPORT*      PTSUNNY   75  64  69 E6        30.03S
ROCHELLE*      MOSUNNY   77  67  71 E6        30.00F
DE KALB*       CLOUDY    76  67  74 N9        30.01F
$$

ILZ005-006-012>014-019>023-302000-
NORTHEAST ILLINOIS

CITY           SKY/WX    TMP DP  RH WIND       PRES   REMARKS
CHICAGO-OHARE  PTSUNNY   75  65  70 NE12      29.98F
CHICAGO-MIDWAY PTSUNNY   78  65  63 NE12      29.97F HX  80
AURORA         MOSUNNY   78  67  68 NE14      29.99F HX  80
LANSING*       CLOUDY    75  66  74 N8        29.97F
JOLIET*        CLOUDY    78  69  73 NE12      29.97F
WAUKEGAN       CLOUDY    72  64  76 NE12      30.01S
DUPAGE AIRPORT PTSUNNY   75  64  68 NE12      29.99S
KANKAKEE*      MOSUNNY   78  67  69 CALM      29.96F HX  80
WHEELING       PTSUNNY   75  64  68 N9        30.01S
MORRIS*        CLOUDY    77  69  75 NE5       29.96S
ROMEOVILLE*    PTSUNNY   77  65  66 NE8       29.98F
NORTHERLY ISL    N/A     74  66  76 N9          N/A
$$

LMZ740>746-302000-
SOUTHERN LAKE MICHIGAN

STATION/POSITION SKY/WX   TEMP    WIND        PRES    VSBY  WAVE
                          AIR SEA DIR/SP/G                  HT/PER
                          (F)     (DEG/KT/KT) (MB)    (MI)  (FT/S)
SOUTHERN BUOY              69 73   60/  4/  6 1015.8F         1/ 5
WILMETTE HARBOR            71 71   50/ 10/ 12   N/A           3/ 4
HARRISON CRIB              72      60/ 10/ 10   N/A
BURNHAM HARBOR             75      40/  8/ 10   N/A
BURNS HARBOR               71      40/  8/ 10 1015.6F
MICHIGAN CITY              71     350/  7/  8   N/A
MICHIGAN CITY 6N           71 72   30/  6/  8   N/A           2/ 5
ST. JOSEPH                 70 72  350/ 10/ 14 1015.0F         1
$$

ILZ025>027-034>036-040-047-049-050-058-095>099-302000-
WEST-CENTRAL ILLINOIS

CITY           SKY/WX    TMP DP  RH WIND       PRES   REMARKS
QUINCY         CLOUDY    78  66  66 SW7       30.01S HX  80
GALESBURG*     SUNNY     79  65  62 N3        29.99S HX  81
MACOMB*        CLOUDY    77  69  75 W5        30.01F
JACKSONVILLE*  MOSUNNY   79  66  64 W8        29.99F HX  81
PITTSFIELD*    SUNNY     80  65  62 NW6       30.02S HX  81
$$

ILZ028>032-037-038-041>044-048-051>054-059>061-302000-
CENTRAL ILLINOIS

CITY           SKY/WX    TMP DP  RH WIND       PRES   REMARKS
BLOOMINGTON    PTSUNNY   79  66  64 VRB5      29.98F HX  81
DECATUR        MOSUNNY   82  66  58 W10       29.97F HX  84
PEORIA         PTSUNNY   79  67  66 N7        29.97F HX  81
LACON*         PTSUNNY   79  66  64 N3        29.96F HX  81
LINCOLN*       CLOUDY    79  69  72 CALM      29.98R HX  81
SPRINGFIELD    PTSUNNY   81  67  62 W8        29.99F HX  83
TAYLORVILLE    SUNNY     78  67  69 MISG      29.99S HX  81
$$

ILZ033-039-045-046-055>057-062-063-302000-
EAST-CENTRAL ILLINOIS

CITY           SKY/WX    TMP DP  RH WIND       PRES   REMARKS
CHAMPAIGN      MOSUNNY   79  67  66 W6        29.98F HX  81
RANTOUL*       SUNNY     81  70  69 NW5       29.97  HX  84
MATTOON        PTSUNNY   79  66  64 NW9       29.97F HX  81
PARIS*         MOSUNNY   81  68  63 W3        29.97F HX  84
$$

ILZ079-100>102-302000-
SOUTHWEST ILLINOIS

CITY           SKY/WX    TMP DP  RH WIND       PRES   REMARKS
BELLEVILLE     MOSUNNY   85  67  54 W6        29.97F HX  88
CAHOKIA*       PTSUNNY   84  62  47 VRB3      29.98F HX  85
SPARTA*        PTSUNNY   83  68  61 W9        30.00F HX  86
$$

ILZ064>066-069>071-074>076-080>082-084>086-088>090-092>094-302000-
SOUTH-CENTRAL ILLINOIS

CITY           SKY/WX    TMP DP  RH WIND       PRES   REMARKS
CARBONDALE     MOSUNNY   84  70  62 VRB3      29.98F HX  88
CAIRO*         SUNNY     80  73  77 CALM      29.99F HX  85
EFFINGHAM*     PTSUNNY   81  68  65 W9        30.00S HX  84
MARION         PTSUNNY   84  70  61 SW6       29.99F HX  88
MT. VERNON     PTSUNNY   84  66  54 W6        29.98F HX  86
CENTRALIA*     PTSUNNY   85  71  63 W5        29.98F HX  89
SALEM*         MOSUNNY   84  67  55 NW7       29.98F HX  86
METROPOLIS*    MOSUNNY   82  73  73 SW3       29.99F HX  87
$$

ILZ067-068-072-073-078-083-087-091-302000-
SOUTHEAST ILLINOIS

CITY           SKY/WX    TMP DP  RH WIND       PRES   REMARKS
LAWRENCEVILLE  PTSUNNY   83  68  60 W8        29.97F HX  86
FLORA*         PTSUNNY   83  68  59 NW7       29.98F HX  86
FAIRFIELD*     MOSUNNY   82  68  61 CALM      29.97S HX  85
HARRISBURG*    MOSUNNY   83  71  67 W5        29.99F HX  87
ROBINSON*      PTSUNNY   81  68  65 W8        29.98F HX  83
CARMI*         PTSUNNY   83  71  68 NW5       29.97F HX  87
$$

ABBREVIATIONS USED IN REMARKS
   TC - TEMPERATURE IN CELSIUS
  WCI - WIND CHILL INDEX
   HX - HEAT INDEX
  VSB - VISIBILITY
$$





USA.gov is the U.S. government's official web portal to all federal, state and local government web resources and services.